Wind_Speed
44 30 29 23 30 9 5 7 3 7 8 11 7 1 4 3 3 1 3 4 7 5 6 9 11 14 16 18 17 19 21 23 26 27 31 31 30 31 32 31 33 35 37 39 39 41 42 42 40
40 41 24 19 17 20 9 3 5 3 4 1 4 4 10 10 4 2 3 4 7 9 8 9 13 16 18 20 22 22 26 27 27 30 33 32 31 32 34 34 35 38 41 44 43 42 43 41 40
35 37 38 25 19 16 16 5 7 7 8 7 8 6 10 7 5 2 2 7 11 11 9 12 11 14 20 21 22 23 24 23 21 20 18 16 16 16 17 21 25 30 30 35 43 43 43 43 42
31 32 31 38 41 37 18 12 6 4 9 10 11 10 12 8 5 2 4 4 7 6 10 12 17 17 22 23 21 22 15 12 12 12 13 16 18 18 17 15 16 14 13 14 18 27 33 37 40
31 30 31 32 38 38 38 24 14 11 10 7 4 7 4 2 6 7 10 7 9 10 10 16 17 19 21 19 17 10 8 9 10 13 14 18 19 19 19 18 18 17 18 19 19 19 17 14 18
25 28 31 24 37 33 34 35 27 17 16 7 5 3 2 5 5 8 7 9 13 14 20 21 19 20 18 10 6 6 7 11 13 14 13 14 16 18 20 20 21 21 20 18 18 20 20 20 20
24 25 26 23 24 29 30 31 33 29 17 10 5 9 9 8 8 8 8 13 16 19 22 20 16 11 6 8 4 4 9 12 14 11 12 14 17 18 19 21 21 22 22 21 19 19 21 20 18
22 22 22 24 25 29 29 29 30 28 26 16 10 8 9 12 12 13 16 18 22 23 22 13 2 4 7 2 1 6 12 8 10 13 13 18 17 18 20 21 21 22 23 21 21 22 20 17 17
22 23 23 23 24 26 28 28 28 28 25 27 25 21 19 16 15 18 22 23 25 22 10 2 3 3 4 5 7 9 7 8 10 11 13 16 17 20 22 22 23 24 24 24 22 21 22 22 21
19 22 22 22 23 22 26 27 25 24 25 23 23 27 23 21 19 19 14 12 10 3 5 2 2 3 6 7 8 9 5 8 11 13 15 18 19 21 23 24 23 23 23 26 27 27 26 27 27
19 19 25 23 22 23 23 27 26 25 23 25 24 20 19 18 18 19 14 8 3 2 3 2 5 7 8 8 7 5 7 9 11 14 17 18 21 24 23 24 24 26 25 24 26 28 30 29 31
17 22 29 28 26 24 26 26 26 26 25 25 25 23 21 16 14 11 11 11 7 2 2 3 6 8 8 7 7 10 10 12 14 16 19 22 26 27 28 29 29 29 31 33 33 30 33 34 32
20 23 31 30 28 28 30 26 27 29 25 26 27 25 22 21 12 10 5 4 4 3 4 6 9 10 12 15 17 17 18 20 19 17 19 23 25 31 30 32 35 36 38 38 36 36 38 38 38
23 27 30 28 29 29 33 32 28 29 28 25 27 24 24 17 20 12 12 8 6 8 7 9 12 16 19 21 23 23 25 26 25 28 28 28 32 38 39 43 45 45 41 52 41 46 44 44 40
29 30 30 30 30 31 32 36 35 33 33 28 27 28 26 24 19 21 22 16 15 12 13 15 18 23 25 27 27 30 31 32 35 37 39 43 43 48 52 50 54 53 59 54 47 47 49 50 50
33 35 34 32 33 32 35 36 37 38 35 33 30 31 30 26 26 25 25 27 24 21 19 23 24 29 31 31 34 35 37 38 42 48 49 51 54 54 52 56 63 62 60 50 49 54 55 56 57
43 43 42 37 36 36 38 38 35 42 40 37 37 35 35 31 29 26 28 29 31 31 31 29 30 33 35 37 39 41 43 45 48 51 55 57 54 52 61 59 57 57 56 58 62 60 57 59 62
49 47 44 44 43 38 38 40 45 43 33 38 44 43 39 39 33 29 29 31 33 34 38 36 37 36 39 41 44 45 47 49 52 57 57 56 58 61 57 58 62 62 64 63 64 64 64 65 69
47 47 42 44 46 44 45 43 40 38 30 35 43 45 47 42 38 33 34 35 33 36 41 38 38 40 42 43 43 47 52 52 53 56 61 62 60 63 67 68 67 66 68 71 72 72 72 73 76
52 47 45 44 47 46 45 44 42 37 37 38 42 46 46 50 38 37 32 33 33 37 40 37 39 41 43 45 47 50 48 51 54 58 59 62 66 67 69 71 73 73 74 75 75 76 75 69 65
50 48 46 46 48 49 46 44 46 43 42 45 43 47 47 48 40 33 32 30 30 35 37 38 39 42 42 45 48 51 52 57 60 60 66 68 69 70 74 77 78 77 77 75 74 70 68 68 64
49 49 49 47 49 47 49 48 49 48 45 46 45 45 48 47 48 42 33 34 34 36 41 41 40 40 42 48 53 55 58 62 64 66 68 71 75 77 80 81 79 78 76 72 67 65 65 65 66
46 49 48 46 49 50 50 51 51 51 50 49 49 45 47 48 39 41 42 38 39 38 41 40 42 44 51 55 55 64 65 65 66 70 74 75 78 82 81 78 76 74 71 69 70 69 69 68 65
43 45 45 45 48 51 53 54 49 47 51 49 49 47 44 42 43 36 37 39 44 47 42 41 44 49 53 59 59 60 64 68 70 75 79 81 79 76 77 76 73 73 74 73 72 71 65 63 64
40 41 41 42 45 49 49 49 43 44 43 41 41 41 44 41 41 41 42 45 46 44 45 47 49 51 53 55 62 65 71 77 81 81 80 75 74 74 74 74 72 72 71 70 66 66 66 67 70
34 35 36 38 40 43 45 45 40 40 40 35 39 41 41 43 44 43 44 42 49 52 55 56 59 59 58 62 69 75 79 82 78 78 78 76 77 75 75 77 75 72 67 66 66 68 71 73 73
35 34 37 36 39 39 39 42 39 36 38 30 36 40 41 43 47 44 47 53 52 54 55 56 58 61 64 70 78 79 79 77 77 76 77 76 76 76 72 70 67 67 68 69 71 74 76 76 79
38 39 36 35 37 38 41 42 37 36 35 32 34 40 40 43 44 47 47 49 52 53 50 54 62 67 69 72 76 74 75 75 73 73 74 75 75 73 70 66 67 69 72 74 76 78 81 84 88
40 41 40 35 33 35 38 41 40 37 37 35 36 40 42 42 41 41 44 48 52 53 56 62 69 68 67 68 71 71 69 72 74 74 75 74 73 68 68 70 73 75 77 79 81 83 88 92 94
39 40 40 35 33 31 33 39 41 37 35 35 39 42 43 47 47 47 50 53 59 63 66 60 61 64 65 63 63 67 71 73 73 73 72 69 67 69 71 74 77 79 81 85 87 89 93 97 100
Wind_Direction
23 44 46 14 11 10 122 73 60 87 84 106 96 238 34 15 58 336 346 17 16 352 332 315 310 317 321 315 307 301 305 300 293 288 291 291 284 283 275 274 272 272 270 269 269 269 269 270 269
27 26 53 36 330 340 349 4 304 193 167 172 321 237 357 352 347 81 59 58 350 312 304 285 288 294 309 314 308 311 309 302 302 294 293 294 291 288 285 277 273 274 275 269 266 266 266 268 267
31 26 20 27 3 350 344 342 295 255 201 230 232 305 323 323 274 289 263 345 317 320 315 309 319 321 323 318 317 313 307 303 304 305 306 305 308 306 300 290 287 284 282 277 264 265 265 266 267
34 27 25 19 13 15 1 352 319 272 235 244 260 289 308 291 250 246 235 269 271 315 326 320 317 310 313 313 317 310 310 323 328 341 342 346 351 355 360 4 4 357 349 334 303 282 276 275 273
30 22 16 21 8 9 8 3 340 305 309 353 269 242 229 249 254 254 263 268 313 314 310 314 301 303 311 305 305 316 357 6 348 344 342 344 352 356 1 4 11 8 11 8 8 8 357 330 297
26 26 18 21 2 1 3 5 5 347 316 324 155 165 254 328 284 268 290 309 294 295 307 318 311 305 304 314 324 6 14 344 339 338 333 355 7 6 9 12 12 11 11 6 2 356 352 351 354
18 18 21 16 2 359 358 3 5 4 357 324 241 254 276 291 296 286 285 294 288 290 307 310 300 313 328 333 3 24 338 341 346 12 26 23 13 10 11 8 6 6 9 9 17 15 11 1 354
10 7 3 14 360 358 353 355 358 0 6 356 300 278 291 285 277 278 277 290 287 293 295 300 328 10 3 6 302 315 335 8 17 3 7 2 3 6 7 8 5 1 359 354 352 351 351 351 349
359 358 355 354 360 352 351 345 346 354 359 3 359 350 346 335 310 295 294 286 286 291 294 203 52 351 330 310 300 306 342 353 353 356 350 356 353 350 347 345 344 341 340 339 337 338 335 334 336
343 349 343 342 337 344 341 344 339 345 351 353 360 355 358 353 358 348 341 327 319 265 174 142 301 260 289 293 301 299 318 325 330 338 341 343 344 342 336 335 332 331 334 334 333 333 328 324 325
331 342 335 327 325 326 330 333 335 334 336 341 341 349 353 358 359 4 5 11 75 133 154 202 249 261 271 282 274 269 298 302 310 321 327 329 329 332 330 328 326 324 321 319 319 318 317 317 316
323 325 328 322 315 311 314 315 324 332 332 329 328 336 334 338 352 4 6 9 360 354 224 225 264 283 284 277 274 274 292 299 309 329 334 335 342 338 336 334 322 320 314 312 308 304 304 305 302
306 310 319 319 312 309 303 305 313 318 323 318 318 326 325 322 312 322 327 323 336 346 299 275 276 271 270 264 266 265 269 277 280 290 307 310 325 331 335 334 334 326 325 315 310 300 298 293 291
288 297 307 308 309 300 305 300 295 306 315 314 313 312 319 308 316 298 287 274 266 265 265 275 269 268 273 279 279 279 282 286 292 301 302 301 303 310 310 314 317 312 315 316 298 303 297 285 284
284 290 295 298 298 299 297 304 297 298 296 305 306 308 308 306 296 303 287 271 267 268 275 269 267 272 281 283 286 290 290 293 301 303 298 300 302 310 308 308 308 305 308 306 299 306 306 296 282
281 286 281 284 294 291 292 294 300 302 294 294 297 301 305 309 298 289 291 289 281 272 266 272 273 283 288 288 290 291 293 296 302 304 305 308 310 307 306 309 310 312 307 305 304 306 303 299 296
280 284 279 279 282 290 290 294 290 296 299 304 295 295 301 299 295 293 291 287 284 280 276 277 281 284 282 287 292 294 299 303 302 305 306 303 299 300 303 306 309 310 306 302 304 302 300 299 294
279 282 276 282 276 280 278 283 287 286 286 293 299 304 292 295 290 290 280 276 277 281 278 278 280 283 287 290 292 298 302 304 305 303 302 297 297 300 302 308 309 307 304 300 301 298 296 295 292
276 278 275 274 280 272 287 286 283 288 287 291 298 307 313 286 289 287 290 284 282 281 281 283 285 285 287 292 296 300 305 306 301 298 297 297 301 304 306 306 307 305 302 301 299 297 295 295 293
275 272 276 275 276 275 275 283 286 286 296 298 295 298 315 315 286 280 277 283 283 284 283 285 284 284 287 291 299 306 302 295 294 295 298 305 306 307 305 306 306 304 302 299 297 297 298 295 293
271 266 270 273 271 273 276 277 283 286 290 297 295 298 305 313 293 284 281 280 276 277 280 282 285 289 296 305 302 298 294 297 295 298 304 305 306 305 304 306 305 304 301 299 299 299 298 298 295
266 266 268 270 268 273 273 275 276 285 287 289 291 293 296 303 309 297 283 283 281 284 291 293 298 299 301 300 294 294 296 298 299 303 305 305 305 304 304 306 304 304 304 304 302 302 300 298 298
263 265 270 269 270 271 272 276 278 281 284 289 294 295 294 296 305 310 298 297 302 303 301 301 298 297 296 300 297 299 303 303 304 304 304 302 302 303 303 304 305 305 304 303 303 303 301 300 299
264 266 266 268 270 273 275 277 281 282 286 289 291 296 299 294 295 297 303 305 306 302 295 292 291 293 300 304 305 305 304 305 305 303 301 302 303 304 304 304 304 303 303 303 301 301 302 302 301
266 265 266 267 268 271 275 276 281 281 287 293 293 294 298 291 294 296 300 305 305 301 301 299 300 299 303 304 304 304 304 305 304 303 304 305 304 303 303 305 306 305 304 301 302 302 302 300 298
265 268 267 268 270 270 273 277 282 281 284 289 286 287 289 290 293 292 297 299 299 302 302 301 304 304 304 303 303 304 304 304 305 305 305 303 303 303 304 304 303 302 301 301 300 299 299 299 298
271 272 269 267 271 272 271 274 277 279 281 282 279 282 287 289 292 287 290 294 296 300 302 301 302 300 305 303 302 304 305 305 305 304 305 307 307 306 305 304 305 304 303 301 301 301 300 298 294
267 272 269 265 267 270 271 271 274 275 277 280 280 277 282 285 288 296 297 298 299 300 300 299 300 301 304 304 306 305 306 306 307 308 309 308 308 308 308 307 305 304 304 303 301 299 296 294 293
266 271 274 277 271 268 269 276 276 275 274 278 278 279 283 287 291 290 289 293 294 295 296 301 303 306 306 306 306 307 308 309 310 309 309 309 309 308 307 306 306 305 304 301 299 299 297 295 295
267 271 276 280 279 281 277 269 274 281 276 275 274 280 286 288 290 293 295 294 296 298 299 303 304 305 307 307 308 311 313 313 311 310 310 310 309 308 308 306 305 303 301 300 301 300 299 298 297
Height
10853 10849 10847 10841 10839 10840 10838 10836 10836 10835 10834 10832 10831 10831 10829 10828 10827 10827 10826 10826 10825 10824 10823 10822 10822 10822 10822 10821 10820 10819 10818 10815 10813 10811 10808 10805 10804 10802 10801 10800 10798 10797 10794 10792 10792 10791 10790 10790 10791
10861 10854 10851 10850 10846 10842 10839 10838 10837 10835 10834 10833 10832 10831 10829 10829 10828 10827 10826 10826 10825 10824 10823 10822 10821 10820 10820 10819 10818 10816 10814 10811 10808 10806 10803 10799 10797 10795 10793 10792 10791 10789 10787 10785 10784 10783 10784 10784 10784
10863 10859 10857 10852 10849 10845 10842 10839 10836 10834 10833 10832 10831 10829 10829 10828 10827 10827 10826 10825 10824 10823 10822 10821 10820 10819 10818 10817 10815 10813 10810 10807 10804 10801 10799 10795 10793 10790 10788 10786 10783 10781 10779 10776 10775 10776 10776 10776 10777
10866 10862 10859 10853 10850 10848 10844 10840 10839 10836 10833 10831 10829 10830 10830 10828 10827 10826 10825 10823 10823 10822 10820 10819 10818 10817 10815 10813 10812 10809 10808 10805 10803 10800 10797 10793 10790 10788 10786 10783 10781 10778 10775 10772 10770 10769 10769 10769 10770
10866 10863 10859 10855 10853 10849 10844 10843 10840 10837 10834 10832 10830 10828 10829 10828 10827 10825 10824 10823 10821 10820 10819 10817 10815 10814 10812 10810 10809 10808 10806 10804 10802 10799 10796 10792 10789 10786 10784 10783 10780 10778 10776 10773 10770 10768 10765 10763 10762
10868 10864 10859 10855 10856 10853 10849 10846 10840 10836 10834 10832 10831 10829 10827 10826 10825 10824 10823 10822 10820 10818 10817 10814 10813 10811 10809 10808 10808 10807 10806 10805 10802 10799 10796 10793 10790 10787 10784 10782 10779 10777 10774 10773 10771 10768 10765 10763 10761
10866 10865 10862 10861 10860 10856 10852 10848 10843 10838 10834 10832 10830 10829 10827 10826 10824 10823 10822 10819 10817 10815 10814 10813 10811 10809 10809 10807 10807 10807 10806 10804 10801 10799 10797 10794 10791 10788 10785 10782 10780 10777 10775 10772 10770 10767 10765 10763 10761
10866 10865 10863 10860 10857 10854 10852 10849 10846 10840 10836 10832 10830 10828 10826 10824 10821 10820 10818 10817 10814 10813 10811 10810 10809 10808 10808 10807 10807 10806 10805 10803 10801 10799 10796 10793 10791 10788 10785 10783 10780 10777 10774 10772 10769 10767 10764 10761 10759
10865 10862 10859 10858 10857 10855 10852 10850 10846 10842 10838 10834 10831 10828 10824 10822 10819 10817 10815 10813 10811 10809 10809 10808 10807 10807 10808 10807 10806 10805 10803 10802 10800 10798 10795 10793 10790 10787 10785 10783 10780 10777 10774 10770 10767 10764 10761 10759 10756
10864 10862 10861 10859 10858 10855 10852 10849 10846 10843 10840 10838 10835 10831 10826 10822 10820 10817 10813 10810 10809 10808 10808 10807 10807 10807 10806 10806 10804 10803 10802 10801 10798 10796 10794 10791 10789 10786 10784 10781 10778 10775 10772 10769 10765 10762 10759 10756 10752
10862 10862 10860 10858 10856 10854 10852 10849 10845 10842 10840 10838 10836 10834 10830 10826 10821 10819 10816 10813 10811 10810 10809 10808 10807 10806 10805 10805 10803 10802 10801 10799 10797 10794 10792 10790 10788 10785 10782 10779 10776 10773 10770 10767 10764 10760 10756 10752 10748
10859 10859 10858 10855 10853 10851 10849 10847 10845 10841 10838 10837 10836 10834 10831 10828 10824 10820 10818 10816 10815 10813 10810 10807 10806 10806 10805 10804 10803 10800 10798 10796 10794 10792 10789 10786 10784 10781 10779 10776 10774 10770 10767 10764 10760 10756 10752 10748 10744
10856 10855 10854 10853 10851 10849 10846 10845 10843 10840 10837 10835 10834 10833 10830 10828 10825 10822 10818 10816 10814 10813 10811 10807 10806 10805 10802 10800 10798 10796 10793 10790 10787 10785 10784 10782 10779 10777 10774 10771 10768 10764 10760 10757 10753 10750 10746 10741 10737
10852 10852 10851 10849 10848 10846 10844 10841 10840 10838 10836 10834 10831 10830 10828 10826 10825 10823 10819 10816 10814 10812 10810 10808 10805 10802 10801 10799 10797 10794 10791 10788 10785 10783 10779 10776 10773 10770 10767 10763 10760 10757 10752 10748 10745 10741 10737 10733 10728
10846 10846 10846 10845 10843 10842 10840 10837 10836 10834 10831 10830 10828 10826 10825 10823 10822 10820 10819 10816 10812 10809 10808 10805 10803 10800 10798 10796 10794 10791 10787 10785 10782 10779 10775 10771 10767 10762 10757 10753 10749 10745 10740 10737 10733 10730 10726 10722 10718
10841 10840 10840 10839 10839 10838 10836 10834 10832 10829 10828 10826 10824 10822 10821 10819 10817 10815 10814 10813 10810 10807 10802 10800 10798 10796 10795 10792 10789 10786 10783 10780 10776 10771 10766 10761 10756 10752 10747 10743 10739 10734 10729 10724 10720 10716 10712 10708 10704
10833 10834 10835 10832 10832 10832 10831 10829 10827 10826 10824 10821 10819 10818 10816 10814 10811 10809 10808 10807 10804 10802 10798 10795 10794 10792 10788 10784 10782 10778 10775 10771 10767 10762 10756 10750 10745 10740 10735 10731 10728 10723 10717 10713 10708 10704 10699 10693 10689
10824 10824 10827 10824 10825 10824 10823 10823 10819 10819 10817 10816 10814 10811 10810 10808 10805 10802 10800 10797 10796 10795 10791 10789 10787 10785 10781 10777 10773 10770 10767 10763 10758 10752 10746 10739 10735 10729 10724 10720 10716 10710 10704 10698 10693 10688 10684 10679 10671
10814 10814 10817 10818 10816 10817 10815 10814 10814 10811 10810 10810 10807 10806 10802 10799 10797 10795 10794 10793 10791 10789 10784 10782 10780 10776 10773 10770 10767 10763 10759 10754 10748 10741 10735 10729 10723 10717 10711 10706 10701 10696 10688 10683 10676 10670 10665 10660 10654
10805 10806 10806 10809 10807 10807 10808 10806 10806 10805 10804 10803 10801 10798 10796 10791 10786 10785 10784 10783 10784 10782 10777 10775 10772 10768 10766 10762 10759 10756 10750 10743 10736 10730 10723 10718 10710 10702 10696 10691 10685 10678 10672 10665 10658 10652 10646 10640 10635
10794 10796 10797 10798 10798 10799 10798 10798 10798 10798 10796 10796 10794 10791 10790 10787 10781 10777 10775 10774 10774 10771 10769 10767 10764 10761 10757 10755 10751 10746 10740 10734 10727 10721 10714 10706 10697 10688 10681 10674 10666 10659 10651 10645 10639 10632 10627 10620 10614
10784 10786 10786 10789 10788 10790 10788 10789 10789 10789 10789 10787 10787 10785 10783 10781 10776 10772 10769 10767 10766 10764 10762 10759 10756 10751 10748 10745 10739 10734 10730 10726 10718 10709 10702 10692 10684 10673 10664 10656 10648 10640 10633 10625 10620 10614 10607 10602 10595
10775 10774 10776 10778 10779 10780 10778 10779 10780 10781 10780 10779 10778 10776 10775 10773 10770 10768 10764 10762 10760 10757 10754 10752 10747 10743 10739 10736 10730 10722 10717 10714 10705 10697 10690 10679 10669 10658 10647 10640 10632 10623 10616 10609 10602 10595 10589 10583 10576
10762 10763 10764 10768 10769 10769 10770 10767 10772 10773 10769 10772 10770 10767 10765 10764 10762 10761 10760 10757 10755 10751 10746 10743 10740 10736 10730 10723 10717 10709 10703 10698 10692 10681 10672 10663 10654 10643 10629 10625 10617 10609 10600 10592 10584 10577 10571 10564 10558
10751 10753 10756 10758 10759 10757 10759 10757 10763 10761 10761 10763 10761 10759 10757 10755 10753 10751 10751 10748 10747 10743 10739 10736 10732 10726 10719 10713 10704 10698 10690 10680 10673 10665 10653 10646 10637 10629 10617 10606 10600 10592 10584 10576 10567 10559 10554 10549 10540
10742 10745 10747 10748 10748 10749 10749 10747 10752 10752 10753 10756 10752 10750 10749 10747 10744 10741 10741 10740 10737 10735 10729 10723 10718 10715 10710 10702 10691 10683 10675 10666 10655 10647 10638 10630 10619 10613 10603 10592 10584 10575 10567 10559 10552 10543 10537 10530 10523
10734 10736 10737 10739 10739 10739 10740 10737 10740 10744 10742 10747 10744 10742 10740 10738 10736 10735 10732 10730 10729 10725 10719 10711 10708 10702 10701 10688 10676 10670 10658 10650 10642 10631 10619 10611 10601 10592 10587 10575 10565 10556 10549 10541 10534 10526 10519 10511 10499
10726 10725 10729 10732 10730 10730 10728 10727 10731 10733 10735 10738 10735 10733 10731 10730 10729 10726 10723 10719 10716 10714 10714 10702 10692 10691 10687 10672 10661 10654 10645 10634 10625 10616 10604 10594 10585 10574 10564 10557 10549 10541 10533 10524 10515 10506 10497 10485 10474
10716 10716 10719 10722 10722 10721 10719 10718 10721 10724 10725 10728 10725 10722 10722 10721 10720 10717 10714 10710 10704 10700 10701 10694 10682 10673 10671 10660 10650 10639 10632 10621 10609 10599 10589 10577 10566 10557 10548 10540 10531 10522 10513 10503 10493 10483 10470 10456 10445
10706 10708 10711 10713 10712 10713 10712 10709 10709 10713 10716 10717 10715 10713 10714 10713 10710 10708 10703 10698 10691 10686 10684 10682 10673 10663 10655 10648 10638 10628 10618 10607 10595 10584 10573 10562 10551 10541 10532 10522 10513 10503 10491 10479 10469 10455 10440 10426 10415